C-Class W202 Forum

Объявление

Уважаемые пользователи форума, если у Вас проблемы с регистрацией или входом на форум используйте в качестве браузера Opera

Информация о пользователе

Привет, Гость! Войдите или зарегистрируйтесь.


Вы здесь » C-Class W202 Forum » Двигатели


Двигатели

Тем 181 страница 210 из 1151

Тема Ответов Просмотров Последнее сообщение
9 134 2012-04-02 22:01:49  Сергей 999
11 1020 2012-04-02 21:44:15  VoLT_157
183 обороты  Илюха54
16 165 2012-04-02 08:31:21  Илюха54
4 233 2012-04-02 08:19:22  911UD
4 108 2012-04-01 22:57:25  Almay
21 505 2012-04-01 17:09:53  александр w202
3 154 2012-04-01 11:09:07  Patrick
58 1058 2012-03-30 19:12:04  Sarmat
3 194 2012-03-30 18:04:03  AKII
190 Дворник  sel
16 645 2012-03-30 14:42:09  AltriD
16 458 2012-03-29 22:35:54  73yura
84 2894 2012-03-28 13:17:49  942
5 216 2012-03-27 22:28:33  коба666
8 279 2012-03-27 22:22:53  коба666
9 211 2012-03-27 19:23:51  wolk985
14 916 2012-03-27 12:19:33  sledge hammer
1 32 2012-03-27 11:56:18  Fallen Religion
36 6320 2012-03-27 09:40:02  TAMERJlAN
18 555 2012-03-26 18:37:05  vital199
16 181 2012-03-25 22:37:08  Сергей 999
13 199 2012-03-25 20:24:09  VoLT_157
5 182 2012-03-24 12:53:27  анdрей
48 1027 2012-03-24 12:47:54  bunu
10 258 2012-03-24 12:16:12  jul202
15 226 2012-03-23 14:19:23  rfv
5 113 2012-03-22 00:59:01  sledge hammer
14 280 2012-03-21 18:14:51  vital199
208 Перемещена: km/h = rpm  Slaffk
     
0 78 2012-03-20 10:54:59  romeo958
5 171 2012-03-20 10:54:15  Роман 500106

Вы здесь » C-Class W202 Forum » Двигатели